,,PA_Meas_PMT16A,,PR_Meas_QMR101_102,,RH_Meas_QMH101,,SR_Meas_QMS101,,TA_Meas_QMH101,,GenWind,,GenWind,
time,status,PA,status,PR,status,RH,status,SR,status,TA,status,DirAvg,status,SpdAvg,
2014-07-02, 07:21:04,VALID,918.978,VALID,0,VALID,96.7564,VALID,27.9347,VALID,20.4244,VALID,148,VALID,1.2957,
2014-07-02, 07:22:04,VALID,918.968,VALID,0.2,VALID,96.764,VALID,29.0091,VALID,20.4259,VALID,142,VALID,1.60391,
2014-07-02, 07:23:04,VALID,918.993,VALID,0,VALID,96.764,VALID,29.7612,VALID,20.4244,VALID,147,VALID,1.50781,
2014-07-02, 07:24:04,VALID,918.959,VALID,0,VALID,96.7793,VALID,30.7282,VALID,20.4049,VALID,153,VALID,1.17773,
2014-07-02, 07:25:04,VALID,919.029,VALID,0,VALID,96.7259,VALID,31.2654,VALID,20.4439,VALID,131,VALID,1.22422,
2014-07-02, 07:26:04,VALID,919.038,VALID,0,VALID,96.7259,VALID,31.8026,VALID,20.3659,VALID,144,VALID,2.14648,
2014-07-02, 07:27:04,VALID,919.003,VALID,0,VALID,96.6878,VALID,32.3398,VALID,20.4049,VALID,148,VALID,1.0668,
2014-07-02, 07:28:04,VALID,919.014,VALID,0,VALID,96.6725,VALID,32.6621,VALID,20.4244,VALID,128,VALID,1.5625,
2014-07-02, 07:29:04,VALID,919.007,VALID,0,VALID,96.6573,VALID,33.0919,VALID,20.4244,VALID,132,VALID,1.18086,
2014-07-02, 07:30:04,VALID,919.007,VALID,0,VALID,96.6497,VALID,33.5216,VALID,20.4049,VALID,135,VALID,1.33086,
2014-07-02, 07:31:04,VALID,919.028,VALID,0,VALID,96.6268,VALID,34.0588,VALID,20.4049,VALID,128,VALID,1.94375,
2014-07-02, 07:32:04,VALID,919.013,VALID,0,VALID,96.6115,VALID,34.3812,VALID,20.4259,VALID,121,VALID,1.16602,
2014-07-02, 07:33:04,VALID,918.971,VALID,0,VALID,96.5963,VALID,34.7035,VALID,20.4244,VALID,138,VALID,0.969531,
2014-07-02, 07:34:04,VALID,918.987,VALID,0,VALID,96.5582,VALID,34.9184,VALID,20.4064,VALID,142,VALID,1.30117,
2014-07-02, 07:35:04,VALID,918.987,VALID,0,VALID,96.5582,VALID,35.4556,VALID,20.3854,VALID,148,VALID,1.06641,
2014-07-02, 07:36:04,VALID,918.984,VALID,0,VALID,96.5201,VALID,35.9928,VALID,20.3854,VALID,148,VALID,1.4957,
2014-07-02, 07:37:04,VALID,918.978,VALID,0,VALID,96.5124,VALID,36.53,VALID,20.3854,VALID,152,VALID,1.32773,
2014-07-02, 07:38:04,VALID,919.003,VALID,0,VALID,96.4667,VALID,37.0672,VALID,20.4064,VALID,170,VALID,0.918359,
2014-07-02, 07:39:04,VALID,918.98,VALID,0,VALID,96.4667,VALID,37.7118,VALID,20.3854,VALID,158,VALID,1.31953,
2014-07-02, 07:40:04,VALID,919.007,VALID,0,VALID,96.4286,VALID,38.0342,VALID,20.3659,VALID,175,VALID,1.70547,
2014-07-02, 07:41:04,VALID,919,VALID,0,VALID,96.4515,VALID,38.8937,VALID,20.3854,VALID,161,VALID,1.32891,
2014-07-02, 07:42:04,VALID,919,VALID,0,VALID,96.4438,VALID,39.4309,VALID,20.3659,VALID,166,VALID,1.35273,
2014-07-02, 07:43:04,VALID,918.973,VALID,0,VALID,96.4515,VALID,40.2904,VALID,20.3464,VALID,161,VALID,1.75547,
2014-07-02, 07:44:04,VALID,918.982,VALID,0,VALID,96.4438,VALID,41.0425,VALID,20.3074,VALID,174,VALID,1.46953,
2014-07-02, 07:45:04,VALID,918.976,VALID,0,VALID,96.421,VALID,42.0095,VALID,20.2879,VALID,163,VALID,0.966406,
2014-07-02, 07:46:04,VALID,918.963,VALID,0,VALID,96.4057,VALID,42.7616,VALID,20.2879,VALID,161,VALID,0.933594,
2014-07-02, 07:47:04,VALID,918.955,VALID,0,VALID,96.421,VALID,43.836,VALID,20.2894,VALID,138,VALID,1.04883,
2014-07-02, 07:48:04,VALID,918.941,VALID,0,VALID,96.4133,VALID,45.0178,VALID,20.2489,VALID,160,VALID,2.34297,
2014-07-02, 07:49:04,VALID,918.916,VALID,0,VALID,96.4057,VALID,46.4146,VALID,20.2293,VALID,196,VALID,1.04258,
2014-07-02, 07:50:04,VALID,918.918,VALID,0,VALID,96.3829,VALID,48.2411,VALID,20.2293,VALID,167,VALID,1.37266,
2014-07-02, 07:51:04,VALID,918.9,VALID,0,VALID,96.3676,VALID,49.9601,VALID,20.1903,VALID,188,VALID,1.68594,
2014-07-02, 07:52:04,VALID,918.887,VALID,0,VALID,96.4057,VALID,52.0015,VALID,20.1708,VALID,162,VALID,2.11836,
2014-07-02, 07:53:04,VALID,918.882,VALID,0,VALID,96.36,VALID,54.0429,VALID,20.1903,VALID,168,VALID,0.858594,
2014-07-02, 07:54:04,VALID,918.869,VALID,0,VALID,96.3905,VALID,56.514,VALID,20.1903,VALID,175,VALID,1.08633,
2014-07-02, 07:55:04,VALID,918.895,VALID,0,VALID,96.3981,VALID,58.6629,VALID,20.2098,VALID,179,VALID,1.04688,
2014-07-02, 07:56:04,VALID,918.887,VALID,0,VALID,96.3981,VALID,61.134,VALID,20.1513,VALID,163,VALID,1.63633,
2014-07-02, 07:57:04,VALID,918.9,VALID,0,VALID,96.3752,VALID,63.7126,VALID,20.1123,VALID,161,VALID,1.23359,
2014-07-02, 07:58:04,VALID,918.918,VALID,0,VALID,96.36,VALID,65.8614,VALID,20.1318,VALID,172,VALID,1.19922,
2014-07-02, 07:59:04,VALID,918.906,VALID,0,VALID,96.3524,VALID,70.0516,VALID,20.0928,VALID,169,VALID,1.03398,
2014-07-02, 08:00:04,VALID,918.917,VALID,0,VALID,96.3371,VALID,73.1674,VALID,20.1529,VALID,157,VALID,0.779688,
2014-07-02, 08:01:04,VALID,918.927,VALID,0,VALID,96.3447,VALID,76.713,VALID,20.0944,VALID,153,VALID,1.04219,
2014-07-02, 08:02:04,VALID,918.907,VALID,0,VALID,96.3219,VALID,79.0767,VALID,20.1139,VALID,159,VALID,0.763281,
2014-07-02, 08:03:04,VALID,918.902,VALID,0,VALID,96.3371,VALID,82.4074,VALID,20.0944,VALID,153,VALID,1.65937,
2014-07-02, 08:04:04,VALID,918.84,VALID,0,VALID,96.2761,VALID,85.0934,VALID,20.0749,VALID,152,VALID,2.38555,
2014-07-02, 08:06:04,VALID,918.844,VALID,0,VALID,96.1846,VALID,90.5729,VALID,20.0328,VALID,147,VALID,2.71484,
2014-07-02, 08:07:04,VALID,918.829,VALID,0,VALID,96.1923,VALID,93.6887,VALID,20.0538,VALID,135,VALID,1.51289,
2014-07-02, 08:08:04,VALID,918.826,VALID,0,VALID,96.1541,VALID,97.2342,VALID,20.0538,VALID,149,VALID,2.14375,
2014-07-02, 08:09:04,VALID,918.815,VALID,0,VALID,96.116,VALID,100.995,VALID,20.0538,VALID,143,VALID,1.46797,
2014-07-02, 08:10:04,VALID,918.809,VALID,0,VALID,96.116,VALID,105.507,VALID,20.0538,VALID,144,VALID,2.96797,
2014-07-02, 08:11:04,VALID,918.808,VALID,0,VALID,96.0703,VALID,109.805,VALID,20.0538,VALID,149,VALID,2.30547,
2014-07-02, 08:12:04,VALID,918.78,VALID,0,VALID,96.0169,VALID,114.21,VALID,20.0538,VALID,142,VALID,2.24062,
2014-07-02, 08:13:04,VALID,918.764,VALID,0,VALID,95.9788,VALID,118.83,VALID,20.0733,VALID,138,VALID,2.02148,
2014-07-02, 08:14:04,VALID,918.743,VALID,0,VALID,95.9407,VALID,123.342,VALID,20.1123,VALID,146,VALID,1.83906,
2014-07-02, 08:15:04,VALID,918.735,VALID,0,VALID,95.9483,VALID,127.21,VALID,20.1123,VALID,145,VALID,1.23789,
2014-07-02, 08:16:04,VALID,918.718,VALID,0,VALID,95.9407,VALID,130.434,VALID,20.1513,VALID,139,VALID,1.38984,
2014-07-02, 08:17:04,VALID,918.689,VALID,0,VALID,95.9407,VALID,133.012,VALID,20.1513,VALID,127,VALID,1.80781,
2014-07-02, 08:18:04,VALID,918.677,VALID,0,VALID,95.9178,VALID,134.624,VALID,20.1708,VALID,138,VALID,1.2875,
2014-07-02, 08:19:04,VALID,918.696,VALID,0,VALID,95.9559,VALID,135.913,VALID,20.2098,VALID,127,VALID,1.34297,
2014-07-02, 08:20:04,VALID,918.688,VALID,0,VALID,95.9483,VALID,136.343,VALID,20.2489,VALID,102,VALID,1.43008,
2014-07-02, 08:21:04,VALID,918.683,VALID,0,VALID,95.9712,VALID,136.45,VALID,20.2879,VALID,102,VALID,0.816406,
2014-07-02, 08:22:04,VALID,918.69,VALID,0,VALID,95.9559,VALID,136.343,VALID,20.3074,VALID,114,VALID,1.64102,
2014-07-02, 08:23:04,VALID,918.734,VALID,0,VALID,95.9559,VALID,135.913,VALID,20.3464,VALID,83,VALID,0.930078,
2014-07-02, 08:24:04,VALID,918.726,VALID,0,VALID,95.9178,VALID,135.591,VALID,20.3464,VALID,70,VALID,1.13008,
2014-07-02, 08:25:04,VALID,918.7,VALID,0,VALID,95.9559,VALID,135.806,VALID,20.3854,VALID,93,VALID,0.876953,
2014-07-02, 08:26:04,VALID,918.744,VALID,0,VALID,95.9483,VALID,135.913,VALID,20.4244,VALID,58,VALID,1.04922,
2014-07-02, 08:27:04,VALID,918.764,VALID,0,VALID,95.9712,VALID,136.343,VALID,20.4439,VALID,111,VALID,0.741016,
2014-07-02, 08:28:04,VALID,918.77,VALID,0,VALID,95.9559,VALID,136.343,VALID,20.4439,VALID,67,VALID,1.14219,
2014-07-02, 08:29:04,VALID,918.777,VALID,0,VALID,95.9864,VALID,135.161,VALID,20.5219,VALID,81,VALID,1.14727,
2014-07-02, 08:30:04,VALID,918.796,VALID,0,VALID,95.9636,VALID,132.475,VALID,20.5024,VALID,89,VALID,0.755078,
2014-07-02, 08:31:04,VALID,918.785,VALID,0,VALID,95.9712,VALID,130.434,VALID,20.5219,VALID,95,VALID,0.991016,
2014-07-02, 08:32:04,VALID,918.791,VALID,0,VALID,95.8797,VALID,131.508,VALID,20.5219,VALID,104,VALID,1.22383,
2014-07-02, 08:33:04,VALID,918.816,VALID,0,VALID,95.895,VALID,131.83,VALID,20.5609,VALID,126,VALID,0.629297,
2014-07-02, 08:34:04,VALID,918.801,VALID,0,VALID,95.8111,VALID,131.615,VALID,20.5024,VALID,129,VALID,1.56445,
2014-07-02, 08:35:04,VALID,918.809,VALID,0,VALID,95.8035,VALID,134.087,VALID,20.5414,VALID,134,VALID,0.908203,
2014-07-02, 08:36:04,VALID,918.851,VALID,0,VALID,95.8187,VALID,136.02,VALID,20.5609,VALID,134,VALID,0.772266,
2014-07-02, 08:37:04,VALID,918.795,VALID,0,VALID,95.7272,VALID,137.095,VALID,20.5414,VALID,141,VALID,0.773047,
2014-07-02, 08:38:04,VALID,918.836,VALID,0,VALID,95.6662,VALID,140.318,VALID,20.5024,VALID,145,VALID,1.26719,
2014-07-02, 08:39:04,VALID,918.83,VALID,0,VALID,95.6434,VALID,146.442,VALID,20.5414,VALID,117,VALID,0.713281,
2014-07-02, 08:40:04,VALID,918.812,VALID,0,VALID,95.6129,VALID,151.062,VALID,20.5414,VALID,145,VALID,0.932813,
2014-07-02, 08:41:04,VALID,918.835,VALID,0,VALID,95.4757,VALID,155.467,VALID,20.5414,VALID,139,VALID,0.662891,
2014-07-02, 08:42:04,VALID,918.824,VALID,0,VALID,95.468,VALID,161.806,VALID,20.5804,VALID,137,VALID,0.86875,
2014-07-02, 08:43:04,VALID,918.809,VALID,0,VALID,95.4375,VALID,167.286,VALID,20.5999,VALID,132,VALID,0.878906,
2014-07-02, 08:44:04,VALID,918.801,VALID,0,VALID,95.468,VALID,172.228,VALID,20.6179,VALID,134,VALID,0.735937,
2014-07-02, 08:45:04,VALID,918.812,VALID,0,VALID,95.2851,VALID,176.956,VALID,20.5984,VALID,136,VALID,0.701953,
2014-07-02, 08:46:04,VALID,918.8,VALID,0,VALID,95.2698,VALID,182.22,VALID,20.6374,VALID,135,VALID,0.659375,
2014-07-02, 08:47:04,VALID,918.768,VALID,0,VALID,95.3079,VALID,187.27,VALID,20.6959,VALID,129,VALID,0.748047,
2014-07-02, 08:48:04,VALID,918.776,VALID,0,VALID,95.3613,VALID,193.502,VALID,20.7739,VALID,120,VALID,0.040625,
2014-07-02, 08:49:04,VALID,918.756,VALID,0,VALID,95.5062,VALID,199.841,VALID,20.873,VALID,155,VALID,1.18555,
2014-07-02, 08:50:04,VALID,918.753,VALID,0,VALID,95.4909,VALID,206.609,VALID,20.93,VALID,184,VALID,0.660156,
2014-07-02, 08:51:04,VALID,918.747,VALID,0,VALID,95.4757,VALID,212.626,VALID,20.9511,VALID,156,VALID,1.30938,
2014-07-02, 08:52:04,VALID,918.752,VALID,0,VALID,95.3003,VALID,217.139,VALID,20.93,VALID,176,VALID,1.18594,
2014-07-02, 08:53:04,VALID,918.738,VALID,0,VALID,95.3156,VALID,221.544,VALID,21.0291,VALID,168,VALID,0.718359,
2014-07-02, 08:54:04,VALID,918.742,VALID,0,VALID,95.3308,VALID,224.122,VALID,21.0681,VALID,179,VALID,0.704297,
2014-07-02, 08:55:04,VALID,918.691,VALID,0,VALID,95.2165,VALID,225.304,VALID,21.0681,VALID,183,VALID,0.713672,
2014-07-02, 08:56:04,VALID,918.71,VALID,0,VALID,95.003,VALID,224.767,VALID,21.0275,VALID,176,VALID,1.11484,
2014-07-02, 08:57:04,VALID,918.711,VALID,0,VALID,94.7209,VALID,223.263,VALID,21.0291,VALID,187,VALID,1.10977,
2014-07-02, 08:58:04,VALID,918.715,VALID,0,VALID,93.9662,VALID,221.651,VALID,20.969,VALID,182,VALID,1.37656,
2014-07-02, 08:59:04,VALID,918.782,VALID,0,VALID,94.3398,VALID,220.899,VALID,21.047,VALID,179,VALID,0.879687,
2014-07-02, 09:00:04,VALID,918.775,VALID,0,VALID,93.2801,VALID,221.544,VALID,20.9495,VALID,168,VALID,1.91133,
2014-07-02, 09:01:04,VALID,918.809,VALID,0,VALID,93.2191,VALID,223.263,VALID,20.9706,VALID,174,VALID,1.3582,
2014-07-02, 09:02:04,VALID,918.79,VALID,0,VALID,93.0743,VALID,225.304,VALID,20.969,VALID,141,VALID,1.06055,
2014-07-02, 09:03:04,VALID,918.823,VALID,0,VALID,93.4555,VALID,226.808,VALID,21.0275,VALID,177,VALID,0.626953,
2014-07-02, 09:04:04,VALID,918.792,VALID,0,VALID,93.6537,VALID,228.312,VALID,21.0665,VALID,179,VALID,0.382813,
2014-07-02, 09:05:04,VALID,918.79,VALID,0,VALID,93.2191,VALID,229.494,VALID,21.0665,VALID,170,VALID,1.17305,
2014-07-02, 09:06:04,VALID,918.821,VALID,0,VALID,92.9828,VALID,230.461,VALID,21.0665,VALID,162,VALID,1.16328,
2014-07-02, 09:07:04,VALID,918.772,VALID,0,VALID,92.8837,VALID,231.751,VALID,21.0665,VALID,138,VALID,0.783984,
2014-07-02, 09:08:04,VALID,918.77,VALID,0,VALID,93.4783,VALID,233.255,VALID,21.164,VALID,133,VALID,0.538672,
2014-07-02, 09:09:04,VALID,918.783,VALID,0,VALID,94.2559,VALID,235.296,VALID,21.2795,VALID,133,VALID,0.281641,
2014-07-02, 09:10:04,VALID,918.777,VALID,0,VALID,94.7514,VALID,236.8,VALID,21.4372,VALID,133,VALID,0,
2014-07-02, 09:11:04,VALID,918.781,VALID,0,VALID,94.6371,VALID,237.982,VALID,21.5152,VALID,151,VALID,0.685547,
2014-07-02, 09:12:04,VALID,918.806,VALID,0,VALID,94.2102,VALID,238.842,VALID,21.5721,VALID,133,VALID,0.207813,
2014-07-02, 09:13:04,VALID,918.798,VALID,0,VALID,93.0362,VALID,239.057,VALID,21.5363,VALID,170,VALID,1.13555,
2014-07-02, 09:14:04,VALID,918.794,VALID,0,VALID,92.2891,VALID,240.883,VALID,21.5168,VALID,183,VALID,0.837891,
2014-07-02, 09:15:04,VALID,918.82,VALID,0,VALID,91.9689,VALID,243.784,VALID,21.5152,VALID,166,VALID,0.977344,
2014-07-02, 09:16:04,VALID,918.797,VALID,0,VALID,91.2675,VALID,248.404,VALID,21.4957,VALID,119,VALID,1.23828,
2014-07-02, 09:17:04,VALID,918.797,VALID,0,VALID,91.4124,VALID,253.883,VALID,21.5737,VALID,163,VALID,0.707812,
2014-07-02, 09:18:04,VALID,918.83,VALID,0,VALID,91.1074,VALID,259.363,VALID,21.6128,VALID,117,VALID,1.00859,
2014-07-02, 09:19:04,VALID,918.831,VALID,0,VALID,90.9931,VALID,266.024,VALID,21.6518,VALID,134,VALID,1.23633,
2014-07-02, 09:20:04,VALID,918.818,VALID,0,VALID,90.4061,VALID,273.223,VALID,21.6518,VALID,137,VALID,0.83125,
2014-07-02, 09:21:04,VALID,918.79,VALID,0,VALID,90.4366,VALID,278.38,VALID,21.6713,VALID,169,VALID,1.16719,
2014-07-02, 09:22:04,VALID,918.788,VALID,0,VALID,89.7733,VALID,281.818,VALID,21.6924,VALID,150,VALID,1.29023,
2014-07-02, 09:23:04,VALID,918.812,VALID,0,VALID,90.4137,VALID,283.537,VALID,21.7315,VALID,174,VALID,0.644141,
2014-07-02, 09:24:04,VALID,918.804,VALID,0,VALID,90.307,VALID,285.471,VALID,21.7883,VALID,157,VALID,1.2207,
2014-07-02, 09:25:04,VALID,918.801,VALID,0,VALID,90.7034,VALID,288.694,VALID,21.8274,VALID,178,VALID,0.544531,
2014-07-02, 09:26:04,VALID,918.817,VALID,0,VALID,89.8953,VALID,293.314,VALID,21.8859,VALID,161,VALID,0.945313,
2014-07-02, 09:27:04,VALID,918.816,VALID,0,VALID,89.7657,VALID,294.926,VALID,21.9249,VALID,179,VALID,0.755469,
2014-07-02, 09:28:04,VALID,918.847,VALID,0,VALID,89.0644,VALID,295.678,VALID,21.9249,VALID,189,VALID,1.58047,
2014-07-02, 09:29:04,VALID,918.834,VALID,0,VALID,89.2854,VALID,296.752,VALID,21.964,VALID,187,VALID,1.78008,
2014-07-02, 09:30:04,VALID,918.86,VALID,0,VALID,89.5142,VALID,298.257,VALID,21.9835,VALID,193,VALID,1.1793,
2014-07-02, 09:31:04,VALID,918.855,VALID,0,VALID,89.7733,VALID,299.976,VALID,22.0225,VALID,203,VALID,1.23789,
2014-07-02, 09:32:04,VALID,918.838,VALID,0,VALID,89.8496,VALID,302.339,VALID,22.1005,VALID,199,VALID,1.20859,
2014-07-02, 09:33:04,VALID,918.836,VALID,0,VALID,90.2003,VALID,305.67,VALID,22.1396,VALID,166,VALID,0.637891,
2014-07-02, 09:34:04,VALID,918.881,VALID,0,VALID,90.0478,VALID,310.183,VALID,22.1786,VALID,185,VALID,1.16445,
2014-07-02, 09:35:04,VALID,918.863,VALID,0,VALID,88.6603,VALID,315.447,VALID,22.1591,VALID,179,VALID,0.910156,
2014-07-02, 09:36:04,VALID,918.865,VALID,0,VALID,89.0263,VALID,319.96,VALID,22.2371,VALID,180,VALID,0.616016,
2014-07-02, 09:37:04,VALID,918.872,VALID,0,VALID,88.9119,VALID,322.538,VALID,22.2745,VALID,196,VALID,1.66406,
2014-07-02, 09:38:04,VALID,918.876,VALID,0,VALID,88.1953,VALID,322.646,VALID,22.2957,VALID,169,VALID,1.28516,
2014-07-02, 09:39:04,VALID,918.885,VALID,0,VALID,88.6222,VALID,321.249,VALID,22.3525,VALID,179,VALID,0.511328,
2014-07-02, 09:40:04,VALID,918.891,VALID,0,VALID,87.959,VALID,319.208,VALID,22.4111,VALID,191,VALID,1.11484,
2014-07-02, 09:41:04,VALID,918.875,VALID,0,VALID,87.6007,VALID,318.456,VALID,22.5103,VALID,176,VALID,1.08555,
2014-07-02, 09:42:04,VALID,918.895,VALID,0,VALID,86.3581,VALID,320.067,VALID,22.4891,VALID,211,VALID,0.619141,
2014-07-02, 09:43:04,VALID,918.929,VALID,0,VALID,85.4661,VALID,325.439,VALID,22.4908,VALID,148,VALID,1.28242,
2014-07-02, 09:44:04,VALID,918.93,VALID,0,VALID,86.3581,VALID,338.01,VALID,22.4696,VALID,126,VALID,0.885547,
2014-07-02, 09:45:04,VALID,918.929,VALID,0,VALID,86.3123,VALID,356.597,VALID,22.4501,VALID,155,VALID,0.816797,
2014-07-02, 09:46:04,VALID,918.941,VALID,0,VALID,86.5639,VALID,364.225,VALID,22.4696,VALID,162,VALID,1.01563,
2014-07-02, 09:47:04,VALID,918.94,VALID,0,VALID,86.3581,VALID,395.598,VALID,22.4501,VALID,168,VALID,1.04922,
2014-07-02, 09:48:04,VALID,918.979,VALID,0,VALID,86.5715,VALID,419.665,VALID,22.4696,VALID,143,VALID,0.809766,
2014-07-02, 09:49:04,VALID,918.954,VALID,0,VALID,86.9832,VALID,452.005,VALID,22.5281,VALID,185,VALID,1.30547,
2014-07-02, 09:50:04,VALID,918.972,VALID,0,VALID,85.6415,VALID,453.724,VALID,22.5672,VALID,161,VALID,1.32266,
2014-07-02, 09:51:04,VALID,918.972,VALID,0,VALID,86.015,VALID,621.225,VALID,22.5867,VALID,111,VALID,1.13164,
2014-07-02, 09:52:04,VALID,919.024,VALID,0,VALID,88.4469,VALID,801.296,VALID,22.7818,VALID,98,VALID,0.437109,
2014-07-02, 09:53:04,VALID,919.009,VALID,0,VALID,86.7926,VALID,686.549,VALID,22.9185,VALID,163,VALID,1.11055,
2014-07-02, 09:54:04,VALID,919.018,VALID,0,VALID,84.9935,VALID,803.015,VALID,23.1136,VALID,122,VALID,1.13828,
2014-07-02, 09:55:04,VALID,918.988,VALID,0,VALID,85.0773,VALID,840.405,VALID,23.268,VALID,107,VALID,0.702734,
2014-07-02, 09:56:04,VALID,918.931,VALID,0,VALID,82.2795,VALID,825.47,VALID,23.4259,VALID,117,VALID,1.70742,
2014-07-02, 09:57:04,VALID,918.962,VALID,0,VALID,80.9226,VALID,721.038,VALID,23.3674,VALID,96,VALID,1.42383,
2014-07-02, 09:58:04,VALID,918.893,VALID,0,VALID,80.854,VALID,570.19,VALID,23.4259,VALID,79,VALID,1.03828,
2014-07-02, 09:59:04,VALID,918.887,VALID,0,VALID,83.7204,VALID,412.896,VALID,23.6211,VALID,40,VALID,1.32695,
2014-07-02, 10:00:04,VALID,918.899,VALID,0,VALID,81.9593,VALID,407.632,VALID,23.7791,VALID,84,VALID,1.31992,
2014-07-02, 10:01:04,VALID,918.906,VALID,0,VALID,79.779,VALID,400.648,VALID,23.662,VALID,108,VALID,1.53398,
2014-07-02, 10:02:04,VALID,918.923,VALID,0,VALID,79.4894,VALID,374.54,VALID,23.543,VALID,92,VALID,0.886719,
2014-07-02, 10:03:04,VALID,918.915,VALID,0,VALID,80.6176,VALID,367.879,VALID,23.5821,VALID,92,VALID,0.323438,
2014-07-02, 10:04:04,VALID,918.929,VALID,0,VALID,81.906,VALID,359.82,VALID,23.6211,VALID,180,VALID,0.814062,
2014-07-02, 10:05:04,VALID,918.916,VALID,0,VALID,81.2961,VALID,353.911,VALID,23.6016,VALID,220,VALID,1.03086,
2014-07-02, 10:06:04,VALID,918.921,VALID,0,VALID,81.4105,VALID,348.324,VALID,23.543,VALID,233,VALID,0.941797,
2014-07-02, 10:07:04,VALID,918.914,VALID,0,VALID,82.5921,VALID,344.027,VALID,23.5821,VALID,209,VALID,0.830078,
2014-07-02, 10:08:04,VALID,918.917,VALID,0,VALID,81.4867,VALID,341.77,VALID,23.6406,VALID,177,VALID,1.11289,
2014-07-02, 10:09:04,VALID,918.94,VALID,0,VALID,80.9302,VALID,340.911,VALID,23.6797,VALID,180,VALID,0.790625,
2014-07-02, 10:10:04,VALID,918.901,VALID,0,VALID,80.5414,VALID,341.233,VALID,23.7187,VALID,199,VALID,0.542969,
2014-07-02, 10:11:04,VALID,918.929,VALID,0,VALID,81.5172,VALID,342.093,VALID,23.7968,VALID,199,VALID,0.748047,
2014-07-02, 10:12:04,VALID,918.944,VALID,0,VALID,80.1831,VALID,342.63,VALID,23.9139,VALID,211,VALID,0.309375,
2014-07-02, 10:13:04,VALID,918.905,VALID,0,VALID,79.314,VALID,342.2,VALID,24.0115,VALID,196,VALID,1.26797,
2014-07-02, 10:14:04,VALID,918.902,VALID,0,VALID,78.5822,VALID,342.2,VALID,24.0878,VALID,193,VALID,1.15625,
2014-07-02, 10:15:04,VALID,918.896,VALID,0,VALID,77.5378,VALID,342.63,VALID,24.1482,VALID,214,VALID,0.492969,
2014-07-02, 10:16:04,VALID,918.874,VALID,0,VALID,78.5212,VALID,343.704,VALID,24.1287,VALID,214,VALID,0.361328,
2014-07-02, 10:17:04,VALID,918.856,VALID,0,VALID,77.5378,VALID,347.035,VALID,24.1854,VALID,181,VALID,0.832422,
2014-07-02, 10:18:04,VALID,918.87,VALID,0,VALID,76.2113,VALID,350.366,VALID,24.2458,VALID,197,VALID,0.807031,
2014-07-02, 10:19:04,VALID,918.833,VALID,0,VALID,76.8059,VALID,351.118,VALID,24.2635,VALID,197,VALID,0.217578,
2014-07-02, 10:20:04,VALID,918.821,VALID,0,VALID,77.6064,VALID,350.258,VALID,24.4002,VALID,197,VALID,0,
2014-07-02, 10:21:04,VALID,918.82,VALID,0,VALID,76.7678,VALID,344.349,VALID,24.5564,VALID,197,VALID,0.0210938,
2014-07-02, 10:22:04,VALID,918.829,VALID,0,VALID,74.5494,VALID,342.845,VALID,24.693,VALID,197,VALID,0.599219,
2014-07-02, 10:23:04,VALID,918.812,VALID,0,VALID,73.9014,VALID,344.134,VALID,24.7711,VALID,197,VALID,0.363672,
2014-07-02, 10:24:04,VALID,918.835,VALID,0,VALID,73.3601,VALID,346.068,VALID,24.8883,VALID,197,VALID,0.320313,
2014-07-02, 10:25:04,VALID,918.807,VALID,0,VALID,73.9471,VALID,345.961,VALID,24.9859,VALID,197,VALID,0,
2014-07-02, 10:26:04,VALID,918.801,VALID,0,VALID,73.1543,VALID,340.911,VALID,25.1031,VALID,197,VALID,0,
2014-07-02, 10:27:04,VALID,918.798,VALID,0,VALID,73.7337,VALID,342.845,VALID,25.2398,VALID,197,VALID,0.398438,
2014-07-02, 10:28:04,VALID,918.81,VALID,0,VALID,72.331,VALID,340.696,VALID,25.2984,VALID,192,VALID,0.335938,
2014-07-02, 10:29:04,VALID,918.789,VALID,0,VALID,72.4758,VALID,335.754,VALID,25.3374,VALID,192,VALID,0.523828,
2014-07-02, 10:30:04,VALID,918.759,VALID,0,VALID,72.3081,VALID,330.811,VALID,25.3765,VALID,192,VALID,0.642578,
2014-07-02, 10:31:04,VALID,918.755,VALID,0,VALID,71.8202,VALID,327.803,VALID,25.3765,VALID,192,VALID,0.764844,
2014-07-02, 10:32:04,VALID,918.738,VALID,0,VALID,71.9803,VALID,326.729,VALID,25.3179,VALID,192,VALID,0.481641,
2014-07-02, 10:33:04,VALID,918.694,VALID,0,VALID,72.1175,VALID,327.266,VALID,25.3179,VALID,192,VALID,0.519141,
2014-07-02, 10:34:04,VALID,918.708,VALID,0,VALID,72.087,VALID,329.415,VALID,25.3179,VALID,192,VALID,0.135156,
2014-07-02, 10:35:04,VALID,918.694,VALID,0,VALID,72.9561,VALID,331.778,VALID,25.357,VALID,192,VALID,0.0609375,
2014-07-02, 10:36:04,VALID,918.686,VALID,0,VALID,73.5812,VALID,332.745,VALID,25.3179,VALID,191,VALID,0.491797,
2014-07-02, 10:37:04,VALID,918.668,VALID,0,VALID,74.6942,VALID,331.026,VALID,25.2593,VALID,179,VALID,0.408203,
2014-07-02, 10:38:04,VALID,918.688,VALID,0,VALID,75.4185,VALID,329.2,VALID,25.2398,VALID,179,VALID,0.388672,
2014-07-02, 10:39:04,VALID,918.679,VALID,0,VALID,75.67,VALID,326.299,VALID,25.2788,VALID,179,VALID,0.135937,
2014-07-02, 10:40:04,VALID,918.66,VALID,0,VALID,76.318,VALID,323.613,VALID,25.2984,VALID,124,VALID,0.881641,
2014-07-02, 10:41:04,VALID,918.673,VALID,0,VALID,76.5086,VALID,320.39,VALID,25.3179,VALID,72,VALID,0.890234,
2014-07-02, 10:42:04,VALID,918.652,VALID,0,VALID,77.9647,VALID,317.381,VALID,25.2183,VALID,72,VALID,0.964453,
2014-07-02, 10:43:04,VALID,918.655,VALID,0,VALID,79.2225,VALID,314.373,VALID,25.1012,VALID,49,VALID,1.54062,
2014-07-02, 10:44:04,VALID,918.623,VALID,0,VALID,80.0306,VALID,312.117,VALID,24.9645,VALID,19,VALID,1.76367,
2014-07-02, 10:45:04,VALID,918.617,VALID,0,VALID,80.5643,VALID,310.183,VALID,24.8474,VALID,351,VALID,1.46602,
2014-07-02, 10:46:04,VALID,918.625,VALID,0,VALID,80.854,VALID,308.034,VALID,24.7107,VALID,13,VALID,1.69961,
2014-07-02, 10:47:04,VALID,918.619,VALID,0,VALID,80.0611,VALID,306.207,VALID,24.5155,VALID,330,VALID,1.22695,
2014-07-02, 10:48:04,VALID,918.602,VALID,0,VALID,80.671,VALID,305.025,VALID,24.4764,VALID,35,VALID,1.26016,
2014-07-02, 10:49:04,VALID,918.635,VALID,0,VALID,80.1526,VALID,306.959,VALID,24.5759,VALID,46,VALID,1.05586,
2014-07-02, 10:50:04,VALID,918.67,VALID,0,VALID,81.1436,VALID,310.29,VALID,24.693,VALID,31,VALID,0.421094,
2014-07-02, 10:51:04,VALID,918.622,VALID,0,VALID,78.8261,VALID,316.414,VALID,24.8297,VALID,31,VALID,0.8625,
2014-07-02, 10:52:04,VALID,918.639,VALID,0,VALID,77.7207,VALID,327.803,VALID,24.9078,VALID,22,VALID,0.59375,
2014-07-02, 10:53:04,VALID,918.636,VALID,0,VALID,77.3472,VALID,349.721,VALID,24.9859,VALID,22,VALID,0.298828,
2014-07-02, 10:54:04,VALID,918.599,VALID,0,VALID,76.623,VALID,353.159,VALID,25.1031,VALID,22,VALID,0.225,
2014-07-02, 10:55:04,VALID,918.596,VALID,0,VALID,76.2494,VALID,344.456,VALID,25.2593,VALID,22,VALID,0,
2014-07-02, 10:56:04,VALID,918.585,VALID,0,VALID,76.2951,VALID,340.051,VALID,25.437,VALID,3,VALID,0.554297,